User: anonymous
Location: Strohbehn Observatory
(42.4649°N, 93.8239°W)
Time: 13:16:20
(UTC-05:00)
Language:

SL-16 R/B - Orbit

View from above orbital plane
View from above orbital plane
View from above satellite
View from above satellite

Ground track
Ground track

The orbit data is extracted from the following two-line orbital elements,

1 31793U 07029B   14206.12290978  .00000191  00000-0  12478-3 0   258
2 31793 070.9753 091.4690 0002283 277.5392 232.9168 14.14270681365116
Epoch (UTC): 25 July 2014 02:56:59
Eccentricity: 0.0002283
inclination: 70.9753°
perigee height: 843 km
apogee height: 846 km
right ascension of ascending node: 91.4690°
argument of perigee: 277.5392°
revolutions per day: 14.14270681
mean anomaly at epoch: 232.9168°
orbit number at epoch: 36511

The dashed part of the orbit path shows where the satellite is in the earth's shadow,  

DLR